Regional Weather Roundup
Issued by NWS

Home | Current Version | Previous Version | Text Only | Print | Product List | Glossary On
Versions: 1 2 3 4 5 6 7 8 9 10 11 12 13 14 15 16 17 18 19 20 21 22 23 24 25 26 27 28 29 30 31 32 33 34 35 36 37 38 39 40 41 42 43 44 45 46 47 48 49 50
000
ASUS43 KLMK 031002
RWRKY
KENTUCKY REGIONAL WEATHER ROUNDUP
NATIONAL WEATHER SERVICE LOUISVILLE KY
500 AM EST TUE MAR 03 2015

NOTE "FAIR" INDICATES FEW OR NO CLOUDS BELOW 12,000 FEET
WITH NO SIGNIFICANT WEATHER AND/OR OBSTRUCTIONS TO VISIBILITY.

KYZ001>023-026-027-061>063-070>075-031100-
WESTERN AND SOUTH CENTRAL KENTUCKY

CITY           SKY/WX    TMP DP  RH WIND       PRES   REMARKS
PADUCAH        CLOUDY    37  26  64 S6        30.08F WCI  32
HENDERSON      CLOUDY    34  25  69 SE6       30.08F WCI  29
OWENSBORO      CLOUDY    35  26  70 SE9       30.11F WCI  28
HOPKINSVILLE   CLOUDY    40  28  61 SE6       30.09F
BOWLING GREEN  CLOUDY    39  26  59 E5        30.14F
GLASGOW        NOT AVBL
$$

KYZ024-025-028>034-038-045-046-053-031100-
NORTH CENTRAL KENTUCKY

CITY           SKY/WX    TMP DP  RH WIND       PRES   REMARKS
LOUISVILLE/SDF CLOUDY    33  21  61 SE6       30.14F WCI  28
LOUISVILLE/LOU CLOUDY    32  20  61 SE5       30.14F WCI  27
FORT KNOX      CLOUDY    31  21  67 E8        30.11F WCI  24
$$

KYZ035>037-039>044-047>052-055>060-089>105-031100-
NORTHEAST KENTUCKY

CITY           SKY/WX    TMP DP  RH WIND       PRES   REMARKS
LEXINGTON      MIX PCPN  31  21  66 E5        30.17F WCI  26
COVINGTON      CLOUDY    28  17  63 E7        30.18F WCI  21
FRANKFORT      CLOUDY    30  20  66 E7        30.14F WCI  23
$$

KYZ054-064>069-076>088-106>120-031100-
SOUTHEAST KENTUCKY

CITY           SKY/WX    TMP DP  RH WIND       PRES   REMARKS
JACKSON        CLOUDY    31  19  61 CALM      30.17R
LONDON         CLOUDY    36  22  56 CALM      30.16S
SOMERSET       NOT AVBL
MIDDLESBORO    CLOUDY    39  31  75 CALM      30.18S
MONTICELLO     CLOUDY    37  29  73 CALM      30.16F
$$



USA.gov is the U.S. government's official web portal to all federal, state and local government web resources and services.